HP3ICC-14 Weather Reports


Display with metric or nautical units.
time (UTC)temp
F
wind
direction
speed
MPH
gust
MPH
rain 1hr
in
rain 24hr
in
rain mn
in
humidity
%
barometer
mb
20260503022212 72 311 1.0 3.0 0.00 0.00 0.00 87 1012.0
20260503022112 72 311 1.0 3.0 0.00 0.00 0.00 87 1012.0
20260503020212 73 311 1.0 3.0 0.00 0.00 0.00 87 1012.0
20260503020111 73 311 1.0 3.0 0.00 0.00 0.00 87 1012.0
20260503014211 74 311 1.0 3.0 0.00 0.00 0.00 87 1012.0
20260503014111 74 311 1.0 3.0 0.00 0.00 0.00 87 1012.0
20260503012210 75 311 2.0 3.0 0.00 0.00 0.00 87 1011.0
20260503012110 75 311 2.0 3.0 0.00 0.00 0.00 87 1011.0
20260503010210 71 262 3.0 5.0 0.00 0.00 0.00 90 1011.0
20260503010109 71 262 3.0 5.0 0.00 0.00 0.00 90 1011.0
20260503004210 72 262 3.0 5.0 0.00 0.00 0.00 90 1011.0
20260503004109 72 262 3.0 5.0 0.00 0.00 0.00 90 1011.0
20260503002209 73 262 3.0 5.0 0.00 0.00 0.00 90 1010.0
20260503002108 73 262 3.0 5.0 0.00 0.00 0.00 90 1010.0
20260503000208 74 262 3.0 5.0 0.00 0.00 0.00 90 1010.0
20260503000108 74 262 3.0 5.0 0.00 0.00 0.00 90 1010.0
20260502234207 75 262 3.0 5.0 0.00 0.00 0.00 90 1010.0
20260502234107 75 262 3.0 5.0 0.00 0.00 0.00 90 1010.0
20260502232207 76 262 3.0 5.0 0.00 0.00 0.00 90 1010.0
20260502232106 76 262 3.0 5.0 0.00 0.00 0.00 90 1010.0
20260502230206 77 262 3.0 5.0 0.00 0.00 0.00 90 1010.0
20260502230106 77 262 3.0 5.0 0.00 0.00 0.00 90 1010.0
20260502224206 70 146 5.0 5.0 0.00 0.00 0.00 82 1010.0
20260502224106 70 146 5.0 5.0 0.00 0.00 0.00 82 1010.0
20260502222205 71 146 5.0 5.0 0.00 0.00 0.00 82 1009.0
20260502222105 71 146 5.0 5.0 0.00 0.00 0.00 82 1009.0
20260502220205 72 146 5.0 5.0 0.00 0.00 0.00 82 1009.0
20260502220104 72 146 5.0 5.0 0.00 0.00 0.00 82 1009.0
20260502214204 73 146 5.0 5.0 0.00 0.00 0.00 82 1009.0
20260502214104 73 146 5.0 5.0 0.00 0.00 0.00 82 1009.0
20260502212203 74 146 5.0 5.0 0.02 0.00 0.00 82 1008.0
20260502212103 74 146 5.0 5.0 0.02 0.00 0.00 82 1008.0
20260502210203 75 146 5.0 5.0 0.05 0.00 0.00 82 1008.0
20260502204202 76 146 5.0 5.0 0.05 0.00 0.00 82 1008.0
20260502204102 76 146 5.0 5.0 0.05 0.00 0.00 82 1008.0
20260502202202 77 146 5.0 5.0 0.07 0.00 0.00 82 1008.0
20260502202101 77 146 5.0 5.0 0.07 0.00 0.00 82 1008.0
20260502200201 78 146 5.0 5.0 0.09 0.00 0.00 82 1008.0
20260502200101 78 146 5.0 5.0 0.09 0.00 0.00 82 1008.0
20260502194200 79 146 5.0 5.0 0.07 0.00 0.00 82 1008.0
20260502194100 79 146 5.0 5.0 0.07 0.00 0.00 82 1008.0
20260502192200 80 146 5.0 5.0 0.07 0.00 0.00 82 1009.0
20260502192100 80 146 5.0 5.0 0.07 0.00 0.00 82 1009.0
20260502190159 81 146 5.0 5.0 0.07 0.00 0.00 82 1009.0
20260502190059 81 146 5.0 5.0 0.07 0.00 0.00 82 1009.0
20260502184159 82 146 6.0 6.0 0.07 0.00 0.00 82 1009.0
20260502184059 82 146 6.0 6.0 0.07 0.00 0.00 82 1009.0
20260502182158 82 153 4.0 3.0 0.10 0.00 0.00 78 1009.0
20260502182058 82 153 4.0 3.0 0.10 0.00 0.00 78 1009.0
20260502180158 83 153 4.0 3.0 0.00 0.00 0.00 78 1009.0
20260502170156 84 253 1.0 4.0 0.00 0.00 0.00 73 1009.0
20260502164156 85 253 1.0 4.0 0.01 0.00 0.00 73 1009.0
20260502164056 85 253 1.0 4.0 0.01 0.00 0.00 73 1009.0
20260502162155 86 253 1.0 4.0 0.00 0.00 0.00 73 1010.0
20260502162055 86 253 1.0 4.0 0.00 0.00 0.00 73 1010.0
20260502160155 87 253 1.0 4.0 0.00 0.00 0.00 73 1010.0
20260502152154 82 278 3.0 3.0 0.00 0.00 0.00 76 1010.0
20260502152054 82 278 3.0 3.0 0.00 0.00 0.00 76 1010.0
20260502150153 83 278 3.0 3.0 0.00 0.00 0.00 76 1010.0
20260502130151 76 256 3.0 3.0 0.00 0.00 0.00 88 1010.0
20260502122150 78 256 3.0 3.0 0.00 0.00 0.00 88 1009.0
20260502122049 78 256 3.0 3.0 0.00 0.00 0.00 88 1009.0
20260502120149 79 256 3.0 3.0 0.00 0.00 0.00 88 1009.0
20260502114149 72 253 4.0 5.0 0.00 0.00 0.00 86 1009.0
20260502114049 72 253 4.0 5.0 0.00 0.00 0.00 86 1009.0
20260502112148 73 253 4.0 5.0 0.00 0.00 0.00 86 1009.0
20260502112048 73 253 4.0 5.0 0.00 0.00 0.00 86 1009.0
20260502110148 74 253 4.0 5.0 0.00 0.00 0.00 86 1009.0
20260502110048 74 253 4.0 5.0 0.00 0.00 0.00 86 1009.0
20260502104147 75 253 4.0 5.0 0.00 0.00 0.00 86 1009.0
20260502104047 75 253 4.0 5.0 0.00 0.00 0.00 86 1009.0
20260502102147 76 253 4.0 5.0 0.00 0.00 0.00 86 1008.0
20260502102047 76 253 4.0 5.0 0.00 0.00 0.00 86 1008.0
20260502100146 77 253 4.0 5.0 0.00 0.00 0.00 86 1008.0
20260502090145 71 244 4.0 7.0 0.00 0.00 0.00 86 1008.0
20260502070142 77 244 4.0 7.0 0.00 0.00 0.00 86 1009.0
20260502070042 77 244 4.0 7.0 0.00 0.00 0.00 86 1009.0
20260502064142 78 244 4.0 7.0 0.00 0.00 0.00 86 1009.0
20260502064041 78 244 4.0 7.0 0.00 0.00 0.00 86 1009.0
20260502062141 79 244 4.0 7.0 0.00 0.00 0.00 86 1009.0
20260502062041 79 244 4.0 7.0 0.00 0.00 0.00 86 1009.0
20260502060141 71 253 1.0 1.0 0.00 0.00 0.00 85 1009.0
20260502060040 71 253 1.0 1.0 0.00 0.00 0.00 85 1009.0
20260502054140 72 253 1.0 1.0 0.00 0.00 0.00 85 1009.0
20260502054040 72 253 1.0 1.0 0.00 0.00 0.00 85 1009.0
20260502052140 73 253 1.0 1.0 0.00 0.00 0.00 85 1010.0
20260502052040 73 253 1.0 1.0 0.00 0.00 0.00 85 1010.0
20260502050139 74 253 1.0 1.0 0.00 0.00 0.00 85 1010.0
20260502050039 74 253 1.0 1.0 0.00 0.00 0.00 85 1010.0
20260502044139 75 253 1.0 1.0 0.00 0.00 0.00 85 1010.0
20260502044039 75 253 1.0 1.0 0.00 0.00 0.00 85 1010.0
20260502042138 76 253 1.0 1.0 0.00 0.00 0.00 85 1010.0
20260502042038 76 253 1.0 1.0 0.00 0.00 0.00 85 1010.0
20260502040138 77 253 1.0 1.0 0.00 0.00 0.00 85 1010.0
20260502040038 77 253 1.0 1.0 0.00 0.00 0.00 85 1010.0
20260502034137 78 253 1.0 1.0 0.00 0.00 0.00 85 1010.0
20260502034037 78 253 1.0 1.0 0.00 0.00 0.00 85 1010.0
20260502032137 79 253 1.0 1.0 0.00 0.00 0.00 85 1009.0
20260502032037 79 253 1.0 1.0 0.00 0.00 0.00 85 1009.0
20260502030136 80 253 2.0 2.0 0.00 0.00 0.00 85 1009.0
20260502030036 80 253 2.0 2.0 0.00 0.00 0.00 85 1009.0
20260502024136 72 281 4.0 5.0 0.00 0.00 0.00 83 1009.0
20260502024036 72 281 4.0 5.0 0.00 0.00 0.00 83 1009.0